MJONE EGGP-EGCC

Flight info

Callsign MJONE
Flight time 0h 10m
Altitude 3500
Route NANTI
Aircraft PC24/M-SBDGIRWY/LB2

Departure

Time 2026-05-05 19:21
Airport Liverpool John Lennon Airport (EGGP)

Arrival

Time 2026-05-05 19:32
Airport Manchester Airport (EGCC)
Time Latitude Longitude Altitude Speed Heading
2026-05-05 19:08 53.33725 -2.83938 65 ft 0 kts 175°
2026-05-05 19:18 53.33696 -2.83934 66 ft 10 kts 175°
2026-05-05 19:18 53.33632 -2.83926 64 ft 9 kts 176°
2026-05-05 19:18 53.33579 -2.83882 64 ft 10 kts 91°
2026-05-05 19:18 53.33587 -2.83720 69 ft 16 kts 85°
2026-05-05 19:19 53.33533 -2.83632 72 ft 12 kts 176°
2026-05-05 19:19 53.33518 -2.83630 72 ft 0 kts 176°
2026-05-05 19:19 53.33487 -2.83627 69 ft 11 kts 176°
2026-05-05 19:19 53.33425 -2.83659 69 ft 9 kts 258°
2026-05-05 19:20 53.33423 -2.83685 73 ft 0 kts 265°
2026-05-05 19:21 53.33403 -2.84113 72 ft 82 kts 266°
2026-05-05 19:21 53.33344 -2.85469 239 ft 139 kts 271°
2026-05-05 19:21 53.33280 -2.87141 1129 ft 154 kts 268°
2026-05-05 19:22 53.33151 -2.88948 1868 ft 158 kts 268°
2026-05-05 19:22 53.33043 -2.90839 2449 ft 167 kts 268°
2026-05-05 19:22 53.32541 -2.92636 2924 ft 186 kts 225°
2026-05-05 19:22 53.31352 -2.93556 3015 ft 192 kts 180°
2026-05-05 19:23 53.30098 -2.92872 3016 ft 194 kts 136°
2026-05-05 19:23 53.29208 -2.91090 3027 ft 211 kts 123°
2026-05-05 19:23 53.28304 -2.89012 3024 ft 228 kts 122°
2026-05-05 19:23 53.27353 -2.86851 3013 ft 233 kts 123°
2026-05-05 19:24 53.26370 -2.84667 3014 ft 236 kts 124°
2026-05-05 19:24 53.25384 -2.82480 3012 ft 235 kts 124°
2026-05-05 19:24 53.24403 -2.80302 2984 ft 234 kts 124°
2026-05-05 19:24 53.23431 -2.78128 2982 ft 232 kts 122°
2026-05-05 19:25 53.22753 -2.75732 2973 ft 227 kts 103°
2026-05-05 19:25 53.22521 -2.73145 2970 ft 225 kts 88°
2026-05-05 19:25 53.22685 -2.70561 2973 ft 224 kts 79°
2026-05-05 19:25 53.22890 -2.67973 2979 ft 226 kts 81°
2026-05-05 19:26 53.23095 -2.65358 2979 ft 227 kts 80°
2026-05-05 19:26 53.23302 -2.62747 2981 ft 227 kts 80°
2026-05-05 19:26 53.23509 -2.60145 2979 ft 226 kts 80°
2026-05-05 19:26 53.23715 -2.57537 2980 ft 226 kts 80°
2026-05-05 19:27 53.23914 -2.54989 2980 ft 213 kts 82°
2026-05-05 19:27 53.24093 -2.52688 2963 ft 192 kts 81°
2026-05-05 19:27 53.24458 -2.50645 2964 ft 180 kts 68°
2026-05-05 19:27 53.25037 -2.48792 2969 ft 181 kts 55°
2026-05-05 19:28 53.25822 -2.47110 2968 ft 181 kts 53°
2026-05-05 19:28 53.26622 -2.45449 2841 ft 187 kts 52°
2026-05-05 19:28 53.27423 -2.43802 2592 ft 183 kts 52°
2026-05-05 19:28 53.28215 -2.42173 2339 ft 178 kts 52°
2026-05-05 19:29 53.28989 -2.40583 2093 ft 175 kts 51°
2026-05-05 19:29 53.29756 -2.39006 1856 ft 174 kts 51°
2026-05-05 19:29 53.30519 -2.37448 1611 ft 172 kts 50°
2026-05-05 19:29 53.31200 -2.36058 1398 ft 133 kts 52°
2026-05-05 19:30 53.31746 -2.34940 1195 ft 116 kts 52°
2026-05-05 19:30 53.32220 -2.33969 1011 ft 102 kts 51°
2026-05-05 19:30 53.32687 -2.33034 795 ft 113 kts 50°
2026-05-05 19:30 53.33209 -2.32037 789 ft 111 kts 51°
2026-05-05 19:31 53.33688 -2.31005 618 ft 111 kts 52°
2026-05-05 19:31 53.34156 -2.30028 463 ft 104 kts 52°
2026-05-05 19:31 53.34614 -2.29079 326 ft 106 kts 53°
2026-05-05 19:31 53.35073 -2.28120 230 ft 98 kts 52°
2026-05-05 19:32 53.35368 -2.27513 238 ft 40 kts 51°
2026-05-05 19:32 53.35512 -2.27214 245 ft 28 kts 50°
2026-05-05 19:32 53.35622 -2.27087 253 ft 13 kts 329°
2026-05-05 19:32 53.35691 -2.27176 251 ft 10 kts 321°
2026-05-05 19:33 53.35695 -2.27181 251 ft 0 kts 321°
2026-05-05 19:34 53.35710 -2.27215 251 ft 11 kts 292°
2026-05-05 19:34 53.35664 -2.27361 248 ft 17 kts 232°
2026-05-05 19:35 53.35502 -2.27700 234 ft 0 kts 230°
2026-05-05 19:36 53.35502 -2.27701 234 ft 0 kts 230°
2026-05-05 19:36 53.35471 -2.27762 235 ft 20 kts 232°
2026-05-05 19:36 53.35529 -2.27913 233 ft 21 kts
2026-05-05 19:36 53.35599 -2.27954 234 ft 10 kts 231°
2026-05-05 19:37 53.35523 -2.28092 229 ft 18 kts 220°
2026-05-05 19:37 53.35546 -2.28132 230 ft 6 kts
2026-05-05 19:37 53.35578 -2.28142 232 ft 6 kts 336°
2026-05-05 19:37 53.35595 -2.28150 233 ft 0 kts 355°
2026-05-05 19:38 53.35596 -2.28149 233 ft 0 kts 22°
2026-05-05 19:38 53.35596 -2.28144 233 ft 1 kts 81°